Find Starlink 6214

NORAD ID: 56480 Int'l Des: 2023-064 Owner: SPXS Country: US Constellation: starlink operational
LEOCIRCULAR

Live Position

Loading 3D Globe...

About Starlink 6214

Description loading...

Upcoming Passes

Passes for default location (London). Set your location on the main map for personalized predictions.

Altitude History

Loading altitude history...

Two-Line Element Set

1 56480U 23064AJ 26104.91668981 .00015103 00000-0 61401-3 0 9994
2 56480 69.9948 357.7913 0002780 290.4129 326.1941 15.24629311 5868
Epoch: Apr 14, 2026 • Age: 7 hours

Current Status

Altitude 501.0 km
Velocity 7.62 km/s
Sub-Earth Point 49.69°N, 131.19°W
Launch Date May 10, 2023
Age 2.9 years
Type internet

Technical Details

Classification Payload
Mass 305.00 kg
Dry Mass 290.00 kg
Total Mass 305.00 kg
Length 0.20 m
Diameter 2.80 m
Span 9.00 m
Shape Box + pan
Manufacturer SPXS
Bus Type Starlink
Phase Status In Orbit
Owner/State SPXS/US

Most Searched